Norfolk, NE

10:23 AM CDT on April 27, 2017 (GMT -0500)
Stefan Memorial

Weather History for KOFK - March, 2013

Change the Weather History Date:

Friday, March 15, 2013

  Actual Average Record
Temperature  
Mean Temperature 46 °F 37 °F  
Max Temperature 59 °F 48 °F 87 °F (1935)
Min Temperature 33 °F 26 °F -15 °F (1912)
Degree Days  
Heating Degree Days 19 28  
Month to date heating degree days 484 462  
Since 1 July heating degree days 5405 5555  
Cooling Degree Days 0 0  
Month to date cooling degree days 0 0  
Year to date cooling degree days 0 0  
Moisture  
Dew Point 38 °F    
Average Humidity 66    
Maximum Humidity 85    
Minimum Humidity 47    
Precipitation  
Precipitation 0.00 in 0.05 in 0.95 in (1938)
Month to date precipitation 0.85 0.68  
Year to date precipitation 1.75 2.03  
Snow  
Snow 0.00 in 0.20 in - ()
Month to date snowfall 2.8 2.6  
Since 1 July snowfall 17.7 25.4  
Snow Depth 0.00 in    
Sea Level Pressure  
Sea Level Pressure 29.83 in    
Wind  
Wind Speed 11 mph (NW)    
Max Wind Speed 29 mph    
Max Gust Speed 32 mph    
Visibility 9 miles    
Events      
T = Trace of Precipitation, MM = Missing Value Source: NWS Daily Summary

Daily Weather History Graph

Daily Weather History Graph

Search for Another Location

Airport or City:

Trip Planner

Search our weather history database for the weather conditions in past years. The results will help you decide how hot, cold, wet, or windy it might be!

Date:

Astronomy

Mar. 15, 2013 Rise Set
Actual Time 7:41 AM CDT 7:36 PM CDT
Civil Twilight 7:13 AM CDT 8:04 PM CDT
Nautical Twilight 6:40 AM CDT 8:36 PM CDT
Astronomical Twilight 6:08 AM CDT 9:09 PM CDT
Moon 9:27 AM CDT (3/15) 11:56 PM CDT (3/15)
Length of Visible Light 12h 51m
Length of Day
11h 55m
Waxing Crescent, 15% of the Moon is Illuminated
Mar 15
Waxing Crescent
Mar 19
First Quarter
Mar 27
Full
Apr 2
Last Quarter
Apr 10
New

Hourly Weather History & Observations

Time (CDT) Temp. Windchill Dew Point Humidity Pressure Visibility Wind Dir Wind Speed Gust Speed Precip Events Conditions
12:56 AM 45.0 °F 38.9 °F 39.0 °F 80% 30.00 in 10.0 mi South 12.7 mph - N/A   Clear
1:56 AM 44.1 °F 38.6 °F 39.0 °F 82% 29.97 in 10.0 mi South 10.4 mph - N/A   Clear
2:56 AM 45.0 °F 40.1 °F 37.9 °F 76% 29.94 in 10.0 mi South 9.2 mph 16.1 mph N/A   Clear
3:56 AM 44.1 °F 39.0 °F 36.0 °F 73% 29.90 in 10.0 mi South 9.2 mph - N/A   Clear
4:56 AM 43.0 °F 39.5 °F 35.1 °F 74% 29.86 in 10.0 mi South 5.8 mph - N/A   Clear
5:56 AM 44.1 °F 39.0 °F 35.1 °F 71% 29.83 in 10.0 mi South 9.2 mph - N/A   Clear
6:56 AM 45.0 °F 41.2 °F 35.1 °F 68% 29.81 in 10.0 mi SSW 6.9 mph - N/A   Clear
7:56 AM 45.0 °F 43.5 °F 35.1 °F 68% 29.80 in 10.0 mi SSW 3.5 mph - N/A   Clear
8:56 AM 46.9 °F - 37.0 °F 68% 29.79 in 10.0 mi West 9.2 mph - N/A   Clear
9:56 AM 50.0 °F - 37.9 °F 63% 29.80 in 10.0 mi WNW 9.2 mph - N/A   Clear
10:56 AM 54.0 °F - 37.0 °F 53% 29.79 in 10.0 mi NNW 11.5 mph - N/A   Clear
11:56 AM 55.9 °F - 36.0 °F 47% 29.77 in 10.0 mi North 9.2 mph - N/A   Clear
12:56 PM 55.0 °F - 39.0 °F 55% 29.79 in 10.0 mi North 13.8 mph - N/A   Clear
1:56 PM 57.0 °F - 42.1 °F 57% 29.78 in 10.0 mi North 10.4 mph - N/A   Clear
2:56 PM 57.0 °F - 42.1 °F 57% 29.75 in 10.0 mi North 12.7 mph - N/A   Clear
3:56 PM 59.0 °F - 43.0 °F 55% 29.75 in 10.0 mi North 10.4 mph - N/A   Clear
4:56 PM 57.0 °F - 43.0 °F 59% 29.76 in 10.0 mi North 10.4 mph - N/A   Clear
5:56 PM 55.0 °F - 43.0 °F 64% 29.75 in 10.0 mi NNE 5.8 mph - N/A   Clear
6:56 PM 53.1 °F - 43.0 °F 69% 29.78 in 10.0 mi North 12.7 mph - N/A   Clear
7:56 PM 48.0 °F - 39.9 °F 74% 29.82 in 10.0 mi NNW 15.0 mph - N/A   Clear
8:56 PM 43.0 °F 37.2 °F 37.9 °F 82% 29.84 in 9.0 mi North 10.4 mph - N/A   Clear
9:56 PM 39.0 °F 28.8 °F 36.0 °F 89% 29.88 in 6.0 mi NNW 21.9 mph 25.3 mph N/A   Clear
10:09 PM 37.4 °F 27.2 °F 35.6 °F 93% 29.86 in 6.0 mi NNW 19.6 mph 26.5 mph N/A   Partly Cloudy
10:25 PM 37.4 °F 29.8 °F 35.6 °F 93% 29.87 in 6.0 mi NNW 11.5 mph - N/A   Mostly Cloudy
10:56 PM 37.0 °F 27.7 °F 34.0 °F 89% 29.90 in 6.0 mi NNW 16.1 mph - N/A   Overcast